Location: Boda
(47.1872°N, 9.5454°E)
Time: 09:46:52
(UTC+00:00)

Cosmos 1400 Rocket - Pass Details

Date: 14 May 2021
Orbit: 521 x 567 km, 81.2° (Epoch: 16 June)

Event Time Altitude Azimuth Distance (km) Brightness Sun altitude
Rises 00:34:51 0° 342° (NNW) 2,767 7.2 -22.0°
Reaches altitude 10° 00:37:08 10° 336° (NNW) 1,860 6.1 -21.8°
Enters shadow 00:40:45 41° 276° (W) 812 3.5 -21.6°
